time;temperature;load
01/01/09 01:00 AM;24;30360
01/01/09 02:00 AM;24;29155
01/01/09 03:00 AM;24;28086
01/01/09 04:00 AM;24;28031
01/01/09 05:00 AM;24;27730
01/01/09 06:00 AM;24;30490
01/01/09 07:00 AM;24;37081
01/01/09 08:00 AM;24;46975
01/01/09 09:00 AM;25;57261
01/01/09 10:00 AM;28;63679
01/01/09 11:00 AM;30;65123
01/01/09 12:00 PM;30;65142
01/01/09 01:00 PM;30;64745
01/01/09 02:00 PM;28;64783
01/01/09 03:00 PM;29;64607
01/01/09 04:00 PM;29;61089
01/01/09 05:00 PM;29;52406
01/01/09 06:00 PM;28;50328
01/01/09 07:00 PM;27;52425
01/01/09 08:00 PM;25;50457
01/01/09 09:00 PM;25;41577
01/01/09 10:00 PM;25;36002
01/01/09 11:00 PM;25;33522
01/02/09 12:00 AM;24;30625
01/02/09 01:00 AM;24;29060
01/02/09 02:00 AM;24;27586
01/02/09 03:00 AM;24;26846
01/02/09 04:00 AM;23;26561
01/02/09 05:00 AM;23;26626
01/02/09 06:00 AM;23;29623
01/02/09 07:00 AM;23;36612
01/02/09 08:00 AM;23;48735
01/02/09 09:00 AM;24;57640
01/02/09 10:00 AM;25;62674
01/02/09 11:00 AM;27;64199
01/02/09 12:00 PM;28;63426
01/02/09 01:00 PM;29;62501
01/02/09 02:00 PM;29;63652
01/02/09 03:00 PM;28;63210
01/02/09 04:00 PM;28;62199
01/02/09 05:00 PM;28;54278
01/02/09 06:00 PM;27;50700
01/02/09 07:00 PM;27;52979
01/02/09 08:00 PM;26;50947
01/02/09 09:00 PM;25;41600
01/02/09 10:00 PM;24;35936
01/02/09 11:00 PM;24;32087
01/03/09 12:00 AM;24;29645
01/03/09 01:00 AM;24;28288
01/03/09 02:00 AM;24;26990
01/03/09 03:00 AM;24;26284
01/03/09 04:00 AM;23;26047
01/03/09 05:00 AM;23;25965
01/03/09 06:00 AM;23;27347
01/03/09 07:00 AM;23;29320
01/03/09 08:00 AM;24;33989
01/03/09 09:00 AM;24;44474
01/03/09 10:00 AM;25;51617
01/03/09 11:00 AM;26;52517
01/03/09 12:00 PM;26;50691
01/03/09 01:00 PM;26;47800
01/03/09 02:00 PM;27;47629
01/03/09 03:00 PM;27;46962
01/03/09 04:00 PM;26;46680
01/03/09 05:00 PM;26;45825
01/03/09 06:00 PM;25;46635
01/03/09 07:00 PM;25;50761
01/03/09 08:00 PM;24;49260
01/03/09 09:00 PM;24;40557
01/03/09 10:00 PM;24;34675
01/03/09 11:00 PM;23;31996
01/04/09 12:00 AM;23;29536
01/04/09 01:00 AM;23;28364
01/04/09 02:00 AM;24;26949
01/04/09 03:00 AM;24;25615
01/04/09 04:00 AM;24;25146
01/04/09 05:00 AM;24;24969
01/04/09 06:00 AM;24;24833
01/04/09 07:00 AM;24;23998
01/04/09 08:00 AM;24;25935
01/04/09 09:00 AM;25;35521
01/04/09 10:00 AM;26;41549
01/04/09 11:00 AM;28;42181
01/04/09 12:00 PM;30;42797
01/04/09 01:00 PM;29;42573
01/04/09 02:00 PM;28;42768
01/04/09 03:00 PM;28;42478
01/04/09 04:00 PM;28;41759
01/04/09 05:00 PM;27;41730
01/04/09 06:00 PM;26;43558
01/04/09 07:00 PM;25;46955
01/04/09 08:00 PM;25;45841
01/04/09 09:00 PM;24;37817
01/04/09 10:00 PM;24;31649
01/04/09 11:00 PM;24;28601
01/05/09 12:00 AM;24;28846
01/05/09 01:00 AM;23;27669
01/05/09 02:00 AM;23;26661
01/05/09 03:00 AM;23;25805
01/05/09 04:00 AM;23;26181
01/05/09 05:00 AM;23;27499
01/05/09 06:00 AM;22;30108
01/05/09 07:00 AM;22;36221
01/05/09 08:00 AM;23;47377
01/05/09 09:00 AM;25;58317
01/05/09 10:00 AM;27;63803
01/05/09 11:00 AM;28;64688
01/05/09 12:00 PM;30;64566
01/05/09 01:00 PM;31;63859
01/05/09 02:00 PM;30;65080
01/05/09 03:00 PM;30;63998
01/05/09 04:00 PM;30;61603
01/05/09 05:00 PM;30;52972
01/05/09 06:00 PM;29;50044
01/05/09 07:00 PM;27;51883
01/05/09 08:00 PM;26;50579
01/05/09 09:00 PM;26;41658
01/05/09 10:00 PM;25;35432
01/05/09 11:00 PM;25;30607
01/06/09 12:00 AM;25;26446
01/06/09 01:00 AM;25;25501
01/06/09 02:00 AM;24;24399
01/06/09 03:00 AM;24;23654
01/06/09 04:00 AM;24;23693
01/06/09 05:00 AM;24;24533
01/06/09 06:00 AM;24;26592
01/06/09 07:00 AM;24;34911
01/06/09 08:00 AM;24;45499
01/06/09 09:00 AM;26;56231
01/06/09 10:00 AM;27;62163
01/06/09 11:00 AM;28;62925
01/06/09 12:00 PM;29;62755
01/06/09 01:00 PM;31;62442
01/06/09 02:00 PM;31;63284
01/06/09 03:00 PM;31;63551
01/06/09 04:00 PM;31;60818
01/06/09 05:00 PM;30;51756
01/06/09 06:00 PM;29;48568
01/06/09 07:00 PM;28;50603
01/06/09 08:00 PM;26;48838
01/06/09 09:00 PM;26;39657
01/06/09 10:00 PM;25;34123
01/06/09 11:00 PM;24;30656
01/07/09 12:00 AM;24;28467
01/07/09 01:00 AM;24;27413
01/07/09 02:00 AM;24;26278
01/07/09 03:00 AM;23;25308
01/07/09 04:00 AM;24;25491
01/07/09 05:00 AM;24;26134
01/07/09 06:00 AM;24;29348
01/07/09 07:00 AM;24;36634
01/07/09 08:00 AM;24;46279
01/07/09 09:00 AM;26;57095
01/07/09 10:00 AM;28;62266
01/07/09 11:00 AM;29;63545
01/07/09 12:00 PM;29;63280
01/07/09 01:00 PM;30;62925
01/07/09 02:00 PM;31;63753
01/07/09 03:00 PM;31;63749
01/07/09 04:00 PM;30;59773
01/07/09 05:00 PM;29;50793
01/07/09 06:00 PM;28;47610
01/07/09 07:00 PM;27;50482
01/07/09 08:00 PM;26;48815
01/07/09 09:00 PM;26;39911
01/07/09 10:00 PM;25;33469
01/07/09 11:00 PM;25;31038
01/08/09 12:00 AM;25;28365
01/08/09 01:00 AM;25;26895
01/08/09 02:00 AM;24;25906
01/08/09 03:00 AM;24;25066
01/08/09 04:00 AM;24;24908
01/08/09 05:00 AM;24;25798
01/08/09 06:00 AM;23;28553
01/08/09 07:00 AM;23;36103
01/08/09 08:00 AM;24;46230
01/08/09 09:00 AM;26;56703
01/08/09 10:00 AM;27;61633
01/08/09 11:00 AM;27;62766
01/08/09 12:00 PM;30;62163
01/08/09 01:00 PM;31;61714
01/08/09 02:00 PM;30;62128
01/08/09 03:00 PM;30;61966
01/08/09 04:00 PM;29;58857
01/08/09 05:00 PM;28;50635
01/08/09 06:00 PM;27;47718
01/08/09 07:00 PM;26;48927
01/08/09 08:00 PM;26;47476
01/08/09 09:00 PM;25;39695
01/08/09 10:00 PM;25;33108
01/08/09 11:00 PM;25;30258
01/09/09 12:00 AM;25;28023
01/09/09 01:00 AM;25;26578
01/09/09 02:00 AM;24;25658
01/09/09 03:00 AM;24;25044
01/09/09 04:00 AM;24;25086
01/09/09 05:00 AM;24;25982
01/09/09 06:00 AM;24;28811
01/09/09 07:00 AM;24;35799
01/09/09 08:00 AM;24;46134
01/09/09 09:00 AM;25;57085
01/09/09 10:00 AM;27;61732
01/09/09 11:00 AM;28;62745
01/09/09 12:00 PM;30;61201
01/09/09 01:00 PM;29;59993
01/09/09 02:00 PM;29;61386
01/09/09 03:00 PM;31;61695
01/09/09 04:00 PM;29;59307
01/09/09 05:00 PM;28;50715
01/09/09 06:00 PM;27;48161
01/09/09 07:00 PM;27;50818
01/09/09 08:00 PM;26;49033
01/09/09 09:00 PM;25;39879
01/09/09 10:00 PM;25;34111
01/09/09 11:00 PM;25;30132
01/10/09 12:00 AM;24;27071
01/10/09 01:00 AM;24;25440
01/10/09 02:00 AM;24;25769
01/10/09 03:00 AM;23;24853
01/10/09 04:00 AM;23;24684
01/10/09 05:00 AM;23;25292
01/10/09 06:00 AM;23;26845
01/10/09 07:00 AM;23;28526
01/10/09 08:00 AM;23;33323
01/10/09 09:00 AM;24;44291
01/10/09 10:00 AM;26;49659
01/10/09 11:00 AM;28;50415
01/10/09 12:00 PM;29;50178
01/10/09 01:00 PM;30;47193
01/10/09 02:00 PM;29;46476
01/10/09 03:00 PM;28;45443
01/10/09 04:00 PM;28;44754
01/10/09 05:00 PM;28;44443
01/10/09 06:00 PM;27;45393
01/10/09 07:00 PM;26;48925
01/10/09 08:00 PM;26;47713
01/10/09 09:00 PM;25;38899
01/10/09 10:00 PM;25;32849
01/10/09 11:00 PM;25;30401
01/11/09 12:00 AM;24;28216
01/11/09 01:00 AM;24;26577
01/11/09 02:00 AM;23;25192
01/11/09 03:00 AM;23;24339
01/11/09 04:00 AM;23;23915
01/11/09 05:00 AM;23;24162
01/11/09 06:00 AM;23;25497
01/11/09 07:00 AM;23;24822
01/11/09 08:00 AM;23;27184
01/11/09 09:00 AM;24;36866
01/11/09 10:00 AM;23;41827
01/11/09 11:00 AM;23;42790
01/11/09 12:00 PM;23;42940
01/11/09 01:00 PM;23;43906
01/11/09 02:00 PM;24;44055
01/11/09 03:00 PM;29;43606
01/11/09 04:00 PM;29;43309
01/11/09 05:00 PM;28;43144
01/11/09 06:00 PM;27;45245
01/11/09 07:00 PM;26;46606
01/11/09 08:00 PM;25;45405
01/11/09 09:00 PM;25;37290
01/11/09 10:00 PM;24;32001
01/11/09 11:00 PM;23;28714
01/12/09 12:00 AM;23;26524
01/12/09 01:00 AM;23;25445
01/12/09 02:00 AM;23;24519
01/12/09 03:00 AM;23;23642
01/12/09 04:00 AM;23;23820
01/12/09 05:00 AM;22;24928
01/12/09 06:00 AM;22;28380
01/12/09 07:00 AM;22;33623
01/12/09 08:00 AM;22;41105
01/12/09 09:00 AM;24;50354
01/12/09 10:00 AM;27;56237
01/12/09 11:00 AM;28;57788
01/12/09 12:00 PM;29;57850
01/12/09 01:00 PM;30;56889
01/12/09 02:00 PM;30;60861
01/12/09 03:00 PM;28;66200
01/12/09 04:00 PM;29;62896
01/12/09 05:00 PM;28;52423
01/12/09 06:00 PM;28;48421
01/12/09 07:00 PM;26;51148
01/12/09 08:00 PM;25;48729
01/12/09 09:00 PM;24;39971
01/12/09 10:00 PM;24;33978
01/12/09 11:00 PM;24;31074
01/13/09 12:00 AM;24;28464
01/13/09 01:00 AM;24;27090
01/13/09 02:00 AM;24;26236
01/13/09 03:00 AM;24;25754
01/13/09 04:00 AM;24;25649
01/13/09 05:00 AM;24;26382
01/13/09 06:00 AM;23;29958
01/13/09 07:00 AM;24;37070
01/13/09 08:00 AM;24;48904
01/13/09 09:00 AM;25;60892
01/13/09 10:00 AM;27;65942
01/13/09 11:00 AM;29;67590
01/13/09 12:00 PM;28;66513
01/13/09 01:00 PM;29;65895
01/13/09 02:00 PM;25;56857
01/13/09 03:00 PM;25;56220
01/13/09 04:00 PM;27;53507
01/13/09 05:00 PM;28;45830
01/13/09 06:00 PM;27;43885
01/13/09 07:00 PM;26;46668
01/13/09 08:00 PM;25;44820
01/13/09 09:00 PM;25;35781
01/13/09 10:00 PM;24;30205
01/13/09 11:00 PM;24;27393
01/14/09 12:00 AM;25;25174
01/14/09 01:00 AM;25;24086
01/14/09 02:00 AM;24;25492
01/14/09 03:00 AM;24;25374
01/14/09 04:00 AM;24;25489
01/14/09 05:00 AM;24;26473
01/14/09 06:00 AM;24;29210
01/14/09 07:00 AM;24;35049
01/14/09 08:00 AM;24;43472
01/14/09 09:00 AM;26;53811
01/14/09 10:00 AM;26;59543
01/14/09 11:00 AM;27;60682
01/14/09 12:00 PM;29;59866
01/14/09 01:00 PM;30;60133
01/14/09 02:00 PM;30;59879
01/14/09 03:00 PM;30;59702
01/14/09 04:00 PM;30;57080
01/14/09 05:00 PM;28;49366
01/14/09 06:00 PM;28;47618
01/14/09 07:00 PM;27;49856
01/14/09 08:00 PM;25;48425
01/14/09 09:00 PM;24;39165
01/14/09 10:00 PM;24;33825
01/14/09 11:00 PM;24;30564
01/15/09 12:00 AM;23;28215
01/15/09 01:00 AM;23;27191
01/15/09 02:00 AM;23;26382
01/15/09 03:00 AM;22;25347
01/15/09 04:00 AM;22;25253
01/15/09 05:00 AM;22;26617
01/15/09 06:00 AM;22;29535
01/15/09 07:00 AM;22;36549
01/15/09 08:00 AM;23;44578
01/15/09 09:00 AM;25;51063
01/15/09 10:00 AM;27;55471
01/15/09 11:00 AM;28;56816
01/15/09 12:00 PM;30;56191
01/15/09 01:00 PM;29;55830
01/15/09 02:00 PM;31;56615
01/15/09 03:00 PM;29;56187
01/15/09 04:00 PM;29;53597
01/15/09 05:00 PM;28;46247
01/15/09 06:00 PM;27;43537
01/15/09 07:00 PM;26;46353
01/15/09 08:00 PM;25;44920
01/15/09 09:00 PM;24;36647
01/15/09 10:00 PM;24;30616
01/15/09 11:00 PM;24;27045
01/16/09 12:00 AM;24;24954
01/16/09 01:00 AM;23;23411
01/16/09 02:00 AM;23;22779
01/16/09 03:00 AM;23;21919
01/16/09 04:00 AM;22;22215
01/16/09 05:00 AM;22;23313
01/16/09 06:00 AM;22;26414
01/16/09 07:00 AM;22;32009
01/16/09 08:00 AM;22;40009
01/16/09 09:00 AM;25;50364
01/16/09 10:00 AM;28;56145
01/16/09 11:00 AM;28;57166
01/16/09 12:00 PM;29;55448
01/16/09 01:00 PM;29;54803
01/16/09 02:00 PM;29;55518
01/16/09 03:00 PM;29;55824
01/16/09 04:00 PM;29;53625
01/16/09 05:00 PM;29;45867
01/16/09 06:00 PM;28;43877
01/16/09 07:00 PM;27;46589
01/16/09 08:00 PM;25;45134
01/16/09 09:00 PM;25;38589
01/16/09 10:00 PM;24;34231
01/16/09 11:00 PM;23;31346
01/17/09 12:00 AM;23;26390
01/17/09 01:00 AM;23;23719
01/17/09 02:00 AM;22;22434
01/17/09 03:00 AM;22;21934
01/17/09 04:00 AM;22;21999
01/17/09 05:00 AM;22;22620
01/17/09 06:00 AM;21;24095
01/17/09 07:00 AM;21;24832
01/17/09 08:00 AM;22;29508
01/17/09 09:00 AM;25;38446
01/17/09 10:00 AM;27;44575
01/17/09 11:00 AM;29;45532
01/17/09 12:00 PM;30;45327
01/17/09 01:00 PM;30;43281
01/17/09 02:00 PM;31;42661
01/17/09 03:00 PM;30;42552
01/17/09 04:00 PM;30;41653
01/17/09 05:00 PM;29;41129
01/17/09 06:00 PM;28;41531
01/17/09 07:00 PM;27;45678
01/17/09 08:00 PM;25;44498
01/17/09 09:00 PM;24;39717
01/17/09 10:00 PM;24;35754
01/17/09 11:00 PM;23;31730
01/18/09 12:00 AM;23;27514
01/18/09 01:00 AM;22;24736
01/18/09 02:00 AM;22;23114
01/18/09 03:00 AM;22;22418
01/18/09 04:00 AM;22;22171
01/18/09 05:00 AM;22;22605
01/18/09 06:00 AM;22;23154
01/18/09 07:00 AM;22;22542
01/18/09 08:00 AM;22;24718
01/18/09 09:00 AM;25;34512
01/18/09 10:00 AM;27;39186
01/18/09 11:00 AM;28;40048
01/18/09 12:00 PM;29;40432
01/18/09 01:00 PM;30;40266
01/18/09 02:00 PM;31;40155
01/18/09 03:00 PM;30;40132
01/18/09 04:00 PM;30;40029
01/18/09 05:00 PM;30;39786
01/18/09 06:00 PM;28;40984
01/18/09 07:00 PM;27;44537
01/18/09 08:00 PM;25;45078
01/18/09 09:00 PM;24;41103
01/18/09 10:00 PM;24;35530
01/18/09 11:00 PM;23;31621
01/19/09 12:00 AM;22;27864
01/19/09 01:00 AM;22;25362
01/19/09 02:00 AM;22;24141
01/19/09 03:00 AM;21;23178
01/19/09 04:00 AM;21;23331
01/19/09 05:00 AM;21;24505
01/19/09 06:00 AM;21;27526
01/19/09 07:00 AM;20;34464
01/19/09 08:00 AM;21;44784
01/19/09 09:00 AM;23;54595
01/19/09 10:00 AM;27;60516
01/19/09 11:00 AM;29;61960
01/19/09 12:00 PM;30;61177
01/19/09 01:00 PM;30;60873
01/19/09 02:00 PM;31;62235
01/19/09 03:00 PM;31;61838
01/19/09 04:00 PM;31;58954
01/19/09 05:00 PM;30;50188
01/19/09 06:00 PM;29;46705
01/19/09 07:00 PM;27;49410
01/19/09 08:00 PM;26;47623
01/19/09 09:00 PM;25;39312
01/19/09 10:00 PM;24;32873
01/19/09 11:00 PM;23;29336
01/20/09 12:00 AM;23;26981
01/20/09 01:00 AM;22;25645
01/20/09 02:00 AM;22;24650
01/20/09 03:00 AM;22;24110
01/20/09 04:00 AM;21;24006
01/20/09 05:00 AM;21;25074
01/20/09 06:00 AM;21;27665
01/20/09 07:00 AM;21;34725
01/20/09 08:00 AM;22;45435
01/20/09 09:00 AM;25;55533
01/20/09 10:00 AM;27;61309
01/20/09 11:00 AM;28;62666
01/20/09 12:00 PM;30;61768
01/20/09 01:00 PM;31;61523
01/20/09 02:00 PM;31;62340
01/20/09 03:00 PM;31;61469
01/20/09 04:00 PM;31;58581
01/20/09 05:00 PM;30;50504
01/20/09 06:00 PM;30;48152
01/20/09 07:00 PM;28;50258
01/20/09 08:00 PM;26;48333
01/20/09 09:00 PM;24;39172
01/20/09 10:00 PM;24;33510
01/20/09 11:00 PM;23;29561
01/21/09 12:00 AM;23;27272
01/21/09 01:00 AM;22;25853
01/21/09 02:00 AM;22;25049
01/21/09 03:00 AM;21;24070
01/21/09 04:00 AM;21;24110
01/21/09 05:00 AM;21;25157
01/21/09 06:00 AM;20;28145
01/21/09 07:00 AM;20;34811
01/21/09 08:00 AM;21;45235
01/21/09 09:00 AM;24;55885
01/21/09 10:00 AM;26;60606
01/21/09 11:00 AM;28;61859
01/21/09 12:00 PM;30;61397
01/21/09 01:00 PM;30;61114
01/21/09 02:00 PM;31;62362
01/21/09 03:00 PM;31;62449
01/21/09 04:00 PM;31;59964
01/21/09 05:00 PM;31;50799
01/21/09 06:00 PM;30;47766
01/21/09 07:00 PM;28;50929
01/21/09 08:00 PM;26;48898
01/21/09 09:00 PM;25;40168
01/21/09 10:00 PM;24;33779
01/21/09 11:00 PM;24;30170
01/22/09 12:00 AM;23;27877
01/22/09 01:00 AM;22;26022
01/22/09 02:00 AM;22;24987
01/22/09 03:00 AM;22;24321
01/22/09 04:00 AM;21;23892
01/22/09 05:00 AM;21;24806
01/22/09 06:00 AM;22;27998
01/22/09 07:00 AM;21;35488
01/22/09 08:00 AM;22;45611
01/22/09 09:00 AM;25;56115
01/22/09 10:00 AM;27;61489
01/22/09 11:00 AM;29;62736
01/22/09 12:00 PM;30;62596
01/22/09 01:00 PM;31;62356
01/22/09 02:00 PM;31;63100
01/22/09 03:00 PM;31;61997
01/22/09 04:00 PM;33;59762
01/22/09 05:00 PM;32;51594
01/22/09 06:00 PM;30;48710
01/22/09 07:00 PM;28;48297
01/22/09 08:00 PM;27;48213
01/22/09 09:00 PM;25;40498
01/22/09 10:00 PM;25;35243
01/22/09 11:00 PM;24;31475
01/23/09 12:00 AM;24;28433
01/23/09 01:00 AM;23;26824
01/23/09 02:00 AM;23;25752
01/23/09 03:00 AM;22;24865
01/23/09 04:00 AM;22;24835
01/23/09 05:00 AM;22;25667
01/23/09 06:00 AM;22;28164
01/23/09 07:00 AM;22;34633
01/23/09 08:00 AM;22;45508
01/23/09 09:00 AM;24;55157
01/23/09 10:00 AM;27;60786
01/23/09 11:00 AM;29;62334
01/23/09 12:00 PM;30;61078
01/23/09 01:00 PM;32;60426
01/23/09 02:00 PM;32;61308
01/23/09 03:00 PM;32;61568
01/23/09 04:00 PM;32;58669
01/23/09 05:00 PM;32;49944
01/23/09 06:00 PM;30;47593
01/23/09 07:00 PM;29;50236
01/23/09 08:00 PM;27;48140
01/23/09 09:00 PM;26;40927
01/23/09 10:00 PM;25;36257
01/23/09 11:00 PM;25;32227
01/24/09 12:00 AM;24;28876
01/24/09 01:00 AM;23;27187
01/24/09 02:00 AM;23;25900
01/24/09 03:00 AM;23;25127
01/24/09 04:00 AM;22;24694
01/24/09 05:00 AM;22;24868
01/24/09 06:00 AM;22;26034
01/24/09 07:00 AM;22;27188
01/24/09 08:00 AM;22;32187
01/24/09 09:00 AM;25;41960
01/24/09 10:00 AM;27;47645
01/24/09 11:00 AM;30;48453
01/24/09 12:00 PM;30;47785
01/24/09 01:00 PM;31;45070
01/24/09 02:00 PM;31;44672
01/24/09 03:00 PM;31;44545
01/24/09 04:00 PM;30;43780
01/24/09 05:00 PM;30;43401
01/24/09 06:00 PM;29;44144
01/24/09 07:00 PM;28;47782
01/24/09 08:00 PM;27;46629
01/24/09 09:00 PM;26;40238
01/24/09 10:00 PM;26;35321
01/24/09 11:00 PM;25;31208
01/25/09 12:00 AM;25;28647
01/25/09 01:00 AM;25;26918
01/25/09 02:00 AM;24;25819
01/25/09 03:00 AM;24;24918
01/25/09 04:00 AM;25;24503
01/25/09 05:00 AM;25;25173
01/25/09 06:00 AM;25;25965
01/25/09 07:00 AM;25;24820
01/25/09 08:00 AM;25;27105
01/25/09 09:00 AM;26;36063
01/25/09 10:00 AM;27;41079
01/25/09 11:00 AM;28;41275
01/25/09 12:00 PM;28;40809
01/25/09 01:00 PM;28;40500
01/25/09 02:00 PM;28;40349
01/25/09 03:00 PM;29;40178
01/25/09 04:00 PM;25;39893
01/25/09 05:00 PM;24;39169
01/25/09 06:00 PM;23;40744
01/25/09 07:00 PM;23;43640
01/25/09 08:00 PM;24;41779
01/25/09 09:00 PM;24;34746
01/25/09 10:00 PM;24;30945
01/25/09 11:00 PM;24;28394
01/26/09 12:00 AM;24;26775
01/26/09 01:00 AM;24;25434
01/26/09 02:00 AM;23;24467
01/26/09 03:00 AM;23;23531
01/26/09 04:00 AM;23;23218
01/26/09 05:00 AM;23;23318
01/26/09 06:00 AM;23;24065
01/26/09 07:00 AM;23;24255
01/26/09 08:00 AM;23;25790
01/26/09 09:00 AM;24;32956
01/26/09 10:00 AM;26;36314
01/26/09 11:00 AM;27;37006
01/26/09 12:00 PM;28;36713
01/26/09 01:00 PM;29;37119
01/26/09 02:00 PM;29;36924
01/26/09 03:00 PM;28;36688
01/26/09 04:00 PM;29;36323
01/26/09 05:00 PM;29;36496
01/26/09 06:00 PM;27;37975
01/26/09 07:00 PM;26;41364
01/26/09 08:00 PM;25;41037
01/26/09 09:00 PM;25;33545
01/26/09 10:00 PM;24;29841
01/26/09 11:00 PM;24;27995
01/27/09 12:00 AM;23;26279
01/27/09 01:00 AM;23;24916
01/27/09 02:00 AM;23;23835
01/27/09 03:00 AM;22;23232
01/27/09 04:00 AM;22;22673
01/27/09 05:00 AM;22;22943
01/27/09 06:00 AM;22;23809
01/27/09 07:00 AM;22;23838
01/27/09 08:00 AM;22;24831
01/27/09 09:00 AM;24;30714
01/27/09 10:00 AM;26;36249
01/27/09 11:00 AM;27;37289
01/27/09 12:00 PM;29;37078
01/27/09 01:00 PM;29;37455
01/27/09 02:00 PM;29;37623
01/27/09 03:00 PM;30;37411
01/27/09 04:00 PM;29;37047
01/27/09 05:00 PM;29;36471
01/27/09 06:00 PM;29;37756
01/27/09 07:00 PM;27;41944
01/27/09 08:00 PM;26;41206
01/27/09 09:00 PM;25;34103
01/27/09 10:00 PM;24;30104
01/27/09 11:00 PM;24;27989
01/28/09 12:00 AM;23;26268
01/28/09 01:00 AM;23;24952
01/28/09 02:00 AM;23;23680
01/28/09 03:00 AM;22;23030
01/28/09 04:00 AM;22;23001
01/28/09 05:00 AM;22;23427
01/28/09 06:00 AM;21;25874
01/28/09 07:00 AM;21;32676
01/28/09 08:00 AM;21;42402
01/28/09 09:00 AM;25;51649
01/28/09 10:00 AM;27;56160
01/28/09 11:00 AM;28;58057
01/28/09 12:00 PM;29;57860
01/28/09 01:00 PM;30;57405
01/28/09 02:00 PM;31;58061
01/28/09 03:00 PM;31;57877
01/28/09 04:00 PM;32;55752
01/28/09 05:00 PM;32;47884
01/28/09 06:00 PM;30;44471
01/28/09 07:00 PM;28;47025
01/28/09 08:00 PM;26;45307
01/28/09 09:00 PM;25;37510
01/28/09 10:00 PM;24;31051
01/28/09 11:00 PM;24;28945
01/29/09 12:00 AM;23;27070
01/29/09 01:00 AM;23;25554
01/29/09 02:00 AM;23;24525
01/29/09 03:00 AM;23;23722
01/29/09 04:00 AM;23;23704
01/29/09 05:00 AM;22;24232
01/29/09 06:00 AM;22;27088
01/29/09 07:00 AM;22;33227
01/29/09 08:00 AM;22;42842
01/29/09 09:00 AM;24;50626
01/29/09 10:00 AM;26;56090
01/29/09 11:00 AM;28;56959
01/29/09 12:00 PM;29;56712
01/29/09 01:00 PM;30;56890
01/29/09 02:00 PM;31;57301
01/29/09 03:00 PM;30;56741
01/29/09 04:00 PM;29;54410
01/29/09 05:00 PM;29;47261
01/29/09 06:00 PM;28;44883
01/29/09 07:00 PM;27;47362
01/29/09 08:00 PM;26;45911
01/29/09 09:00 PM;25;36524
01/29/09 10:00 PM;24;31542
01/29/09 11:00 PM;24;29206
01/30/09 12:00 AM;24;27509
01/30/09 01:00 AM;23;25836
01/30/09 02:00 AM;23;24840
01/30/09 03:00 AM;23;24148
01/30/09 04:00 AM;23;23983
01/30/09 05:00 AM;23;24661
01/30/09 06:00 AM;23;27147
01/30/09 07:00 AM;23;34171
01/30/09 08:00 AM;23;43412
01/30/09 09:00 AM;25;52795
01/30/09 10:00 AM;27;58640
01/30/09 11:00 AM;27;59002
01/30/09 12:00 PM;29;57869
01/30/09 01:00 PM;30;57526
01/30/09 02:00 PM;30;58623
01/30/09 03:00 PM;31;58743
01/30/09 04:00 PM;30;56341
01/30/09 05:00 PM;30;47926
01/30/09 06:00 PM;28;46684
01/30/09 07:00 PM;27;48618
01/30/09 08:00 PM;26;45749
01/30/09 09:00 PM;26;37333
01/30/09 10:00 PM;25;32189
01/30/09 11:00 PM;25;30115
01/31/09 12:00 AM;25;28078
01/31/09 01:00 AM;24;26318
01/31/09 02:00 AM;24;25107
01/31/09 03:00 AM;24;24158
01/31/09 04:00 AM;24;24060
01/31/09 05:00 AM;24;24707
01/31/09 06:00 AM;24;26127
01/31/09 07:00 AM;24;27331
01/31/09 08:00 AM;24;31767
01/31/09 09:00 AM;25;41953
01/31/09 10:00 AM;27;46447
01/31/09 11:00 AM;28;47787
01/31/09 12:00 PM;29;46681
01/31/09 01:00 PM;29;43763
01/31/09 02:00 PM;31;43446
01/31/09 03:00 PM;29;42505
01/31/09 04:00 PM;28;41959
01/31/09 05:00 PM;29;41564
01/31/09 06:00 PM;28;42958
01/31/09 07:00 PM;27;47224
01/31/09 08:00 PM;26;46125
01/31/09 09:00 PM;26;37552
01/31/09 10:00 PM;25;32899
01/31/09 11:00 PM;25;30803
02/01/09 12:00 AM;24;28663
02/01/09 01:00 AM;24;27073
02/01/09 02:00 AM;24;25889
02/01/09 03:00 AM;24;25152
02/01/09 04:00 AM;24;24352
02/01/09 05:00 AM;24;24517
02/01/09 06:00 AM;24;25399
02/01/09 07:00 AM;24;25271
02/01/09 08:00 AM;24;27570
02/01/09 09:00 AM;26;36408
02/01/09 10:00 AM;27;41259
02/01/09 11:00 AM;28;42152
02/01/09 12:00 PM;29;41315
02/01/09 01:00 PM;29;41327
02/01/09 02:00 PM;31;41073
02/01/09 03:00 PM;29;40958
02/01/09 04:00 PM;29;40469
02/01/09 05:00 PM;29;40988
02/01/09 06:00 PM;28;42484
02/01/09 07:00 PM;27;46324
02/01/09 08:00 PM;26;45705
02/01/09 09:00 PM;25;37023
02/01/09 10:00 PM;25;31944
02/01/09 11:00 PM;24;28929
02/02/09 12:00 AM;24;26988
02/02/09 01:00 AM;23;25532
02/02/09 02:00 AM;23;24529
02/02/09 03:00 AM;23;23951
02/02/09 04:00 AM;22;23911
02/02/09 05:00 AM;22;24687
02/02/09 06:00 AM;22;27678
02/02/09 07:00 AM;22;34814
02/02/09 08:00 AM;22;46294
02/02/09 09:00 AM;25;55712
02/02/09 10:00 AM;27;61025
02/02/09 11:00 AM;28;62721
02/02/09 12:00 PM;30;62157
02/02/09 01:00 PM;31;61342
02/02/09 02:00 PM;32;61966
02/02/09 03:00 PM;32;61783
02/02/09 04:00 PM;32;59024
02/02/09 05:00 PM;30;51161
02/02/09 06:00 PM;30;48455
02/02/09 07:00 PM;28;49868
02/02/09 08:00 PM;26;48480
02/02/09 09:00 PM;26;38574
02/02/09 10:00 PM;25;33228
02/02/09 11:00 PM;24;30046
02/03/09 12:00 AM;23;27497
02/03/09 01:00 AM;23;26199
02/03/09 02:00 AM;22;25279
02/03/09 03:00 AM;22;24427
02/03/09 04:00 AM;21;24450
02/03/09 05:00 AM;22;25519
02/03/09 06:00 AM;22;27952
02/03/09 07:00 AM;21;35055
02/03/09 08:00 AM;22;45736
02/03/09 09:00 AM;24;55484
02/03/09 10:00 AM;26;60646
02/03/09 11:00 AM;28;62925
02/03/09 12:00 PM;29;62002
02/03/09 01:00 PM;30;59718
02/03/09 02:00 PM;30;62300
02/03/09 03:00 PM;31;61441
02/03/09 04:00 PM;30;58991
02/03/09 05:00 PM;30;50309
02/03/09 06:00 PM;29;47034
02/03/09 07:00 PM;27;49230
02/03/09 08:00 PM;26;47842
02/03/09 09:00 PM;25;38571
02/03/09 10:00 PM;25;33214
02/03/09 11:00 PM;24;29911
02/04/09 12:00 AM;24;27290
02/04/09 01:00 AM;23;26124
02/04/09 02:00 AM;23;25310
02/04/09 03:00 AM;23;24487
02/04/09 04:00 AM;23;24142
02/04/09 05:00 AM;22;25087
02/04/09 06:00 AM;22;27989
02/04/09 07:00 AM;22;34778
02/04/09 08:00 AM;22;45449
02/04/09 09:00 AM;25;55326
02/04/09 10:00 AM;27;60908
02/04/09 11:00 AM;28;62321
02/04/09 12:00 PM;30;61679
02/04/09 01:00 PM;30;61270
02/04/09 02:00 PM;30;62116
02/04/09 03:00 PM;31;61457
02/04/09 04:00 PM;27;58496
02/04/09 05:00 PM;29;51352
02/04/09 06:00 PM;29;48544
02/04/09 07:00 PM;27;50761
02/04/09 08:00 PM;26;49419
02/04/09 09:00 PM;25;39197
02/04/09 10:00 PM;25;33706
02/04/09 11:00 PM;24;30458
02/05/09 12:00 AM;24;27920
02/05/09 01:00 AM;24;26530
02/05/09 02:00 AM;23;25557
02/05/09 03:00 AM;23;24835
02/05/09 04:00 AM;23;24860
02/05/09 05:00 AM;23;25724
02/05/09 06:00 AM;22;28827
02/05/09 07:00 AM;22;36107
02/05/09 08:00 AM;22;45771
02/05/09 09:00 AM;24;55801
02/05/09 10:00 AM;25;60808
02/05/09 11:00 AM;27;62203
02/05/09 12:00 PM;29;61680
02/05/09 01:00 PM;30;61581
02/05/09 02:00 PM;30;62135
02/05/09 03:00 PM;30;61487
02/05/09 04:00 PM;30;58990